Location: Ch�risy
(50.2331°N, 2.9131°E)
Time: 01:59:01
(UTC+00:00)

IRS-1C Rocket - Pass Details

Date: 17 January 2021
Orbit: 801 x 805 km, 99.0° (Epoch: 28 February)

Event Time Altitude Azimuth Distance (km) Brightness Sun altitude
Rises 17:26:39 0° 146° (SE) 3,302 7.1 -10.8°
Reaches altitude 10° 17:29:02 10° 141° (SE) 2,375 6.3 -11.1°
Maximum altitude 17:34:05 51° 67° (ENE) 1,009 4.2 -11.9°
Drops below altitude 10° 17:39:10 10° 353° (N) 2,390 6.5 -12.7°
Sets 17:41:33 0° 349° (NNW) 3,325 7.2 -13.1°
